(99539) = 2002 ES97

Discovered at Socorro on 2002-03-12 by LINEAR.

Orbit

Orbit type: Main Belt

Note: WebGL enabled browser required.

epoch2024-03-31.0
epoch JD2460400.5
perihelion date2025-02-24.60328
perihelion JD2460731.10328
argument of perihelion (°)144.17730
ascending node (°)113.78760
inclination (°)3.62862
eccentricity0.0790811
perihelion distance (AU)1.9924193
Tisserand w.r.t. Jupiter3.7
ΔV w.r.t. Earth (km/sec)8.7
semimajor axis (AU)2.1635123
mean anomaly (°)257.60660
mean daily motion (°/day)0.30971680
aphelion distance (AU)2.335
period (years)3.18
P-vector [x]-0.20743724
P-vector [y]-0.91161599
P-vector [z]-0.35486064
Q-vector [x]0.97653261
Q-vector [y]-0.17149393
Q-vector [z]-0.13028390
absolute magnitude16.75
phase slope0.15
uncertainty0
referenceMPEC 2024-C128
observations used1056
oppositions17
arc length (days)9571
first opposition used1997
last opposition used2024
residual rms (arc-secs)0.68
perturbers coarse indicatorM-v
perturbers precise indicator003Ek
first observation date used1997-11-28.0
last observation date used2024-02-11.0
computer nameMPCLINUX
JD of orbit computation2456731.570496
perihelion JD uncertainty (days)1.5593E-04
argument of perihelion uncertainty (°)8.9548E-05
ascending node uncertainty (°)7.8144E-05
inclination uncertainty (°)6.7049E-06
eccentricity uncertainty 5.4584E-08
perihelion distance uncertainty (AU)1.1595E-07
Minimum Orbit Intersection Distances (in AU)
for orbit epoch: 2460400.5, reference: E2024-GB3
Mercury1.52857
Venus1.26704
Earth0.97828
Mars0.45109
Jupiter2.68293
Saturn6.71058
Uranus16.2559
Neptune27.5273

Observations

1070 total observations over interval: 1997 11 28.32394 – 2024 02 11.520108
These data are available for download (format description).

Date (UT) J2000 RA J2000 Dec Magn Location Ref
1997 11 28.32394 03 38 53.66 +14 18 23.0 19.9 V 691 – Steward Observatory, Kitt Peak-Spacewatch MPS 80079
1997 11 28.34563 03 38 52.18 +14 18 20.3 19.7 V 691 – Steward Observatory, Kitt Peak-Spacewatch MPS 80079
1997 11 28.36734 03 38 50.70 +14 18 17.2 19.7 V 691 – Steward Observatory, Kitt Peak-Spacewatch MPS 80079
1997 12 04.31391 03 32 34.89 +14 07 11.7 20.0 V 691 – Steward Observatory, Kitt Peak-Spacewatch MPS 54944
1997 12 04.33880 03 32 33.33 +14 07 09.3 19.9 V 691 – Steward Observatory, Kitt Peak-Spacewatch MPS 54944
1998 01 02.15925 03 15 15.39 +14 12 01.0 20.7 V 691 – Steward Observatory, Kitt Peak-Spacewatch MPS 80079
1998 01 02.18086 03 15 15.15 +14 12 03.6 20.6 V 691 – Steward Observatory, Kitt Peak-Spacewatch MPS 80079
1998 01 02.20245 03 15 14.94 +14 12 06.1 20.8 V 691 – Steward Observatory, Kitt Peak-Spacewatch MPS 80079
1998 01 27.11571 03 21 25.35 +15 35 42.0 21.3 V 691 – Steward Observatory, Kitt Peak-Spacewatch MPS 54944
1998 01 27.13766 03 21 26.11 +15 35 47.4 21.2 V 691 – Steward Observatory, Kitt Peak-Spacewatch MPS 54944
1998 01 27.15940 03 21 26.90 +15 35 53.3 21.4 V 691 – Steward Observatory, Kitt Peak-Spacewatch MPS 54944
2002 02 10.39004 12 07 29.43 +04 11 15.5 19.7   704 – Lincoln Laboratory ETS, New Mexico MPS 54944
2002 02 10.40428 12 07 29.15 +04 11 19.9 20.3   704 – Lincoln Laboratory ETS, New Mexico MPS 54944
2002 02 10.41858 12 07 28.90 +04 11 23.8 20.1   704 – Lincoln Laboratory ETS, New Mexico MPS 54944
2002 02 10.43286 12 07 28.63 +04 11 27.8 19.9   704 – Lincoln Laboratory ETS, New Mexico MPS 54944
2002 02 10.44712 12 07 28.41 +04 11 32.5 20.3   704 – Lincoln Laboratory ETS, New Mexico MPS 54944
2002 02 20.30885 12 03 22.79 +05 09 05.2 19.7   704 – Lincoln Laboratory ETS, New Mexico MPS 54944
2002 02 20.33658 12 03 21.77 +05 09 16.5 19.3   704 – Lincoln Laboratory ETS, New Mexico MPS 54944
2002 02 20.35052 12 03 21.28 +05 09 23.5 19.9   704 – Lincoln Laboratory ETS, New Mexico MPS 54944
2002 02 20.36493 12 03 20.69 +05 09 29.6 20.2   704 – Lincoln Laboratory ETS, New Mexico MPS 54944
2002 03 09.26689 11 50 12.51 +07 17 46.1 18.9 R 703 – Catalina Sky Survey MPS 54944
2002 03 09.27766 11 50 12.14 +07 17 51.5 18.5 R 703 – Catalina Sky Survey MPS 54944
2002 03 09.30917 11 50 10.12 +07 18 06.1 19.0 R 703 – Catalina Sky Survey MPS 54944
2002 03 09.31757 11 50 09.66 +07 18 10.4 18.2 R 703 – Catalina Sky Survey MPS 54944
2002 03 11.43542 11 48 08.33 +07 35 07.5 18.6   644 – Palomar Mountain/NEAT MPS 54944
2002 03 11.44595 11 48 07.70 +07 35 12.5 18.9   644 – Palomar Mountain/NEAT MPS 54944
2002 03 11.45632 11 48 07.07 +07 35 17.3 18.8   644 – Palomar Mountain/NEAT MPS 54944
2002 03 12.31727 11 47 17.36 +07 42 10.1 18.6   704 – Lincoln Laboratory ETS, New Mexico MPS 55837
2002 03 12.33620 11 47 16.22 +07 42 17.6 19.2   704 – Lincoln Laboratory ETS, New Mexico MPS 55837
2002 03 12.35485 11 47 15.09 +07 42 26.8 18.9   704 – Lincoln Laboratory ETS, New Mexico MPS 55837
2002 03 12.37332 11 47 13.98 +07 42 36.4 18.9   704 – Lincoln Laboratory ETS, New Mexico MPS 55837
2002 03 13.30307 11 46 19.78 +07 49 57.4 19.1 V 291 – LPL/Spacewatch II MPS 54944
2002 03 13.34176 11 46 17.41 +07 50 15.8 19.1 V 291 – LPL/Spacewatch II MPS 54944
2002 03 13.39725 11 46 13.97 +07 50 42.2 19.1 V 291 – LPL/Spacewatch II MPS 54944
2002 03 17.33292 11 42 21.04 +08 21 10.6 18.6   704 – Lincoln Laboratory ETS, New Mexico MPS 55837
2002 03 17.36210 11 42 19.25 +08 21 24.8 18.7   704 – Lincoln Laboratory ETS, New Mexico MPS 55837
2002 03 17.39098 11 42 17.48 +08 21 37.6 18.6   704 – Lincoln Laboratory ETS, New Mexico MPS 55837
2002 04 11.14675 11 21 24.31 +10 35 14.2 19.1 R 699 – Lowell Observatory-LONEOS MPS 54944
2002 04 11.16982 11 21 23.28 +10 35 18.9   699 – Lowell Observatory-LONEOS MPS 54944
2002 04 11.19286 11 21 22.47 +10 35 22.9   699 – Lowell Observatory-LONEOS MPS 54944
2002 04 11.21592 11 21 21.57 +10 35 27.1   699 – Lowell Observatory-LONEOS MPS 54944
2002 04 11.25112 11 21 20.24 +10 35 32.8 19.2   704 – Lincoln Laboratory ETS, New Mexico MPS 54944
2002 04 11.28590 11 21 18.99 +10 35 38.0 19.7   704 – Lincoln Laboratory ETS, New Mexico MPS 54944
2002 04 11.29749 11 21 18.47 +10 35 40.1 19.6   704 – Lincoln Laboratory ETS, New Mexico MPS 54944
2003 09 18.29167 00 41 41.89 -02 11 30.5 18.8   704 – Lincoln Laboratory ETS, New Mexico MPS 84520
2003 09 18.31556 00 41 40.59 -02 11 39.9 19.6   704 – Lincoln Laboratory ETS, New Mexico MPS 84520
2003 09 18.32760 00 41 39.87 -02 11 45.8 19.3   704 – Lincoln Laboratory ETS, New Mexico MPS 84520
2003 09 22.31980 00 37 58.02 -02 40 56.8 19.0 R 699 – Lowell Observatory-LONEOS MPS 85190
2003 09 22.33637 00 37 57.04 -02 41 03.9   699 – Lowell Observatory-LONEOS MPS 85190
2003 09 22.35306 00 37 56.04 -02 41 11.6   699 – Lowell Observatory-LONEOS MPS 85190
2003 09 22.36959 00 37 54.99 -02 41 18.6   699 – Lowell Observatory-LONEOS MPS 85190
2003 09 28.23278 00 32 12.38 -03 23 17.1 18.7   704 – Lincoln Laboratory ETS, New Mexico MPS 86193
2003 09 28.24609 00 32 11.52 -03 23 23.7 19.0   704 – Lincoln Laboratory ETS, New Mexico MPS 86193
2003 09 28.25897 00 32 10.79 -03 23 29.6 19.2   704 – Lincoln Laboratory ETS, New Mexico MPS 86193
2003 09 28.27157 00 32 09.95 -03 23 33.5 19.5   704 – Lincoln Laboratory ETS, New Mexico MPS 86193
2003 09 28.28421 00 32 09.16 -03 23 39.2 18.8   704 – Lincoln Laboratory ETS, New Mexico MPS 86193
2004 12 20.45768 10 14 47.00 +12 14 14.1 19.5 R G96 – Mt. Lemmon Survey MPS 122677
2004 12 20.47051 10 14 47.31 +12 14 14.5 19.9 R G96 – Mt. Lemmon Survey MPS 122677
2004 12 20.48336 10 14 47.60 +12 14 14.5 19.9 R G96 – Mt. Lemmon Survey MPS 122677
2004 12 20.49624 10 14 47.85 +12 14 14.6 19.9 R G96 – Mt. Lemmon Survey MPS 122677
2005 02 02.35190 10 01 06.85 +15 15 41.9 18.4 R 703 – Catalina Sky Survey MPS 125633
2005 02 02.35938 10 01 06.49 +15 15 44.3 18.7 R 703 – Catalina Sky Survey MPS 125633
2005 02 02.36690 10 01 05.98 +15 15 47.3 18.7 R 703 – Catalina Sky Survey MPS 125633
2005 02 02.37439 10 01 05.58 +15 15 51.8 19.2 R 703 – Catalina Sky Survey MPS 125633
2005 02 03.36153 10 00 09.28 +15 23 09.9 18.9   704 – Lincoln Laboratory ETS, New Mexico MPS 125633
2005 02 03.37444 10 00 08.56 +15 23 16.2 19.0   704 – Lincoln Laboratory ETS, New Mexico MPS 125633
2005 02 03.38724 10 00 07.76 +15 23 21.7 19.3   704 – Lincoln Laboratory ETS, New Mexico MPS 125633
2005 02 03.40008 10 00 07.02 +15 23 26.3 19.3   704 – Lincoln Laboratory ETS, New Mexico MPS 125633
2005 02 03.41359 10 00 06.16 +15 23 33.1 19.2   704 – Lincoln Laboratory ETS, New Mexico MPS 125633
2005 02 04.35830 09 59 11.45 +15 30 35.0 18.5 R G96 – Mt. Lemmon Survey MPS 126350
2005 02 04.36623 09 59 10.95 +15 30 38.7 18.6 R G96 – Mt. Lemmon Survey MPS 126350
2005 02 04.37417 09 59 10.45 +15 30 42.0 18.7 R G96 – Mt. Lemmon Survey MPS 126350
2005 02 04.38212 09 59 09.97 +15 30 45.6 18.7 R G96 – Mt. Lemmon Survey MPS 126350
2005 02 09.30046 09 54 11.28 +16 07 45.3 18.8 R 699 – Lowell Observatory-LONEOS MPS 126743
2005 02 09.32480 09 54 09.70 +16 07 56.8   699 – Lowell Observatory-LONEOS MPS 126743
2005 02 09.34913 09 54 08.08 +16 08 07.2   699 – Lowell Observatory-LONEOS MPS 126743
2005 02 09.37346 09 54 06.53 +16 08 18.7   699 – Lowell Observatory-LONEOS MPS 126743
2005 02 14.30673 09 48 52.73 +16 45 05.0 19.5   704 – Lincoln Laboratory ETS, New Mexico MPS 126743
2005 02 14.31949 09 48 51.89 +16 45 10.0 19.4   704 – Lincoln Laboratory ETS, New Mexico MPS 126743
2005 02 14.33173 09 48 51.07 +16 45 15.3 18.7   704 – Lincoln Laboratory ETS, New Mexico MPS 126743
2005 02 14.34415 09 48 50.19 +16 45 21.0 19.3   704 – Lincoln Laboratory ETS, New Mexico MPS 126743
2005 03 02.23517 09 32 40.28 +18 27 46.9 19.3 R 703 – Catalina Sky Survey MPS 127691
2005 03 02.24369 09 32 39.73 +18 27 50.9 20.0 R 703 – Catalina Sky Survey MPS 127691
2005 03 02.25222 09 32 39.43 +18 27 53.1 19.7 R 703 – Catalina Sky Survey MPS 127691
2005 03 02.26071 09 32 38.92 +18 27 54.7 19.9 R 703 – Catalina Sky Survey MPS 127691
2005 03 04.30357 09 30 51.02 +18 38 20.8 20.1   704 – Lincoln Laboratory ETS, New Mexico MPS 127691
2005 03 04.31781 09 30 50.32 +18 38 24.2 19.9   704 – Lincoln Laboratory ETS, New Mexico MPS 127691
